Tracking 25995 objects as of 19-Aug-2022
HD Live streaming from Space Station
objects crossing your sky now

YUNHAI 2 4

Track YUNHAI 2 4 now!
10-day predictions


NORAD ID: 43912
Int'l Code: 2018-112D
Perigee: 795.0 km
Apogee: 817.5 km
Inclination: 50.0 °
Period: 100.9 minutes
Semi major axis: 7177 km
RCS: Unknown
Launch date: December 29, 2018
Source: People's Republic of China (PRC)
Launch site: Jiuquan Satellite Launch Center, China (JSC)
aabbcc
Your satellite tracking list
Your tracking list is empty




NASA's NSSDC Master Catalog

Two Line Element Set (TLE):
1 43912U 18112D   22230.75191488 -.00000038  00000-0  49668-4 0  9993
2 43912  50.0119  97.5658 0015634 117.4271 242.8217 14.27792382187691
Source of the keplerian elements: AFSPC